Weather in Nam Dinh

Vietnam     20°25′31″N   106°10′29″E
temp.,
°C
wind,
m/s
gust,
m/s
humid.,
%
clouds,
%
prec.,
mm/h
press.,
hPa
HPBL,
m
28 september, tue
tue2801:00+25wnw118989 0.3 101018
04:00+24n119269 0.2 101015
07:00+26n118944 0.2 101191
10:00+30nw21705 0.0 1012929
13:00+33se01554 0.0 10081586
16:00+31se43674 0.0 1007652
19:00+27sse36831 0.1 1008155
22:00+26sse22840 0.0 101048
29 september, wed
wed2901:00+26sw11870 0.0 100928
04:00+25s11900 0.0 100824
07:00+27sse01850 0.0 1010124
10:00+31s11650 0.0 10111012
13:00+32sse21571 0.0 10071379
16:00+31sse33639 0.0 1006876
19:00+27sse35770 0.0 1007129
22:00+26s23800 0.0 100962
30 september, thu
thu3001:00+26s22840 0.0 100838
04:00+25sse22870 0.0 100836
07:00+27s11830 0.0 1010134
10:00+31s22650 0.0 10101032
13:00+32s22570 0.0 10071272
16:00+31sse44661 0.0 1006797
19:00+27sse36820 0.0 1007162
22:00+26sse36863 0.0 1009147
1 october, fri
fri101:00+26s34889 0.0 1008112
04:00+26s22849 0.0 100846
07:00+27s238111 0.0 1009210
10:00+31s44623 0.0 10101199
13:00+31sse44565 0.0 10071221
16:00+30sse445928 0.0 1006824
19:00+26se367736 0.0 1008132
22:00+26sse2377100 0.0 100966
2 october, sat
sat201:00+25sse3477100 0.0 100982
04:00+25se2379100 0.0 100870
07:00+26ese2480100 0.0 1010161
10:00+30se336697 0.0 10111117
13:00+30sse336494 0.1 10081104
16:00+30se346557 0.0 1007851
19:00+26ese368221 0.0 1009141
22:00+25se248332 0.0 101079